CW7668 Weather Reports


Display with metric or nautical units.
time (UTC)temp
F
wind
direction
speed
MPH
gust
MPH
rain 1hr
in
rain 24hr
in
rain mn
in
humidity
%
barometer
mb
20260506024555 78 167 2.0 10.0 0.00 0.00 0.00 92 1008.2
20260506024322 78 177 2.0 10.0 0.00 0.00 0.00 92 1008.2
20260506023544 78 191 3.0 10.0 0.00 0.00 0.00 91 1008.0
20260506023037 78 148 3.0 10.0 0.00 0.00 0.00 91 1008.1
20260506022531 78 138 3.0 11.0 0.00 0.00 0.00 91 1007.9
20260506022025 78 140 2.0 11.0 0.00 0.00 0.00 91 1007.9
20260506021524 78 115 2.0 10.0 0.00 0.00 0.00 91 1007.8
20260506021024 78 140 2.0 10.0 0.00 0.00 0.00 91 1007.8
20260506020524 78 146 2.0 7.0 0.00 0.00 0.00 90 1007.7
20260506020254 79 94 1.0 7.0 0.00 0.00 0.00 90 1007.7
20260506015521 79 148 2.0 7.0 0.00 0.00 0.00 90 1007.7
20260506015020 79 154 2.0 7.0 0.00 0.00 0.00 90 1007.7
20260506014520 79 161 2.0 8.0 0.00 0.00 0.00 90 1007.5
20260506014019 79 142 2.0 8.0 0.00 0.00 0.00 89 1007.4
20260506013520 79 173 2.0 7.0 0.00 0.00 0.00 89 1007.4
20260506013018 79 142 1.0 7.0 0.00 0.00 0.00 89 1007.4
20260506012519 79 165 2.0 8.0 0.00 0.00 0.00 89 1007.5
20260506012018 79 147 2.0 8.0 0.00 0.00 0.00 89 1007.6
20260506011516 79 159 3.0 12.0 0.00 0.00 0.00 88 1007.1
20260506011013 79 130 3.0 12.0 0.00 0.00 0.00 88 1007.0
20260506010745 79 156 2.0 9.0 0.00 0.00 0.00 88 1007.0
20260506010014 79 186 3.0 9.0 0.00 0.00 0.00 88 1007.0
20260506005745 79 144 3.0 11.0 0.00 0.00 0.00 88 1006.9
20260506005008 80 159 4.0 11.0 0.00 0.00 0.00 87 1006.9
20260506004502 80 150 2.0 9.0 0.00 0.00 0.00 87 1006.9
20260506003956 80 141 1.0 8.0 0.00 0.00 0.00 87 1006.9
20260506003453 80 148 2.0 8.0 0.00 0.00 0.00 87 1006.9
20260506002953 80 136 1.0 8.0 0.00 0.00 0.00 87 1006.8
20260506002452 80 126 2.0 9.0 0.00 0.00 0.00 87 1006.7
20260506002226 80 155 3.0 11.0 0.00 0.00 0.00 87 1006.7
20260506001453 80 140 3.0 11.0 0.00 0.00 0.00 86 1006.7
20260506000953 80 179 3.0 11.0 0.00 0.00 0.00 86 1006.8
20260506000453 80 161 3.0 12.0 0.00 0.00 0.00 86 1006.8
20260505235954 80 134 3.0 12.0 0.00 0.00 0.00 86 1006.9
20260505235726 80 153 3.0 12.0 0.00 0.00 0.00 87 1006.8
20260505234954 80 138 2.0 10.0 0.00 0.00 0.00 86 1006.7
20260505234455 81 199 3.0 12.0 0.00 0.00 0.00 86 1006.8
20260505233950 81 133 3.0 12.0 0.00 0.00 0.00 86 1006.7
20260505233450 81 134 3.0 13.0 0.00 0.00 0.00 86 1006.7
20260505232950 81 148 3.0 13.0 0.00 0.00 0.00 85 1006.7
20260505232449 81 160 3.0 11.0 0.00 0.00 0.00 85 1006.7
20260505231948 81 171 3.0 10.0 0.00 0.00 0.00 84 1006.8
20260505231449 82 191 2.0 9.0 0.00 0.00 0.00 85 1006.7
20260505230948 82 154 2.0 9.0 0.00 0.00 0.00 85 1006.6
20260505230449 82 179 3.0 11.0 0.00 0.00 0.00 86 1006.6
20260505225950 82 178 3.0 11.0 0.00 0.00 0.00 85 1006.7
20260505225445 82 155 2.0 9.0 0.00 0.00 0.00 85 1006.8
20260505224945 83 132 2.0 9.0 0.00 0.00 0.00 84 1006.7
20260505224718 83 150 2.0 10.0 0.00 0.00 0.00 84 1006.7
20260505223944 83 161 3.0 12.0 0.00 0.00 0.00 84 1006.7
20260505223445 83 136 3.0 12.0 0.00 0.00 0.00 82 1006.8
20260505222946 83 194 2.0 8.0 0.00 0.00 0.00 82 1006.7
20260505222444 83 148 2.0 8.0 0.00 0.00 0.00 82 1006.7
20260505221945 83 213 3.0 11.0 0.00 0.00 0.00 82 1006.9
20260505221446 83 159 3.0 13.0 0.00 0.00 0.00 82 1006.9
20260505220942 83 132 4.0 13.0 0.00 0.00 0.00 83 1006.9
20260505220442 83 219 3.0 15.0 0.00 0.00 0.00 83 1006.8
20260505215942 83 130 2.0 15.0 0.00 0.00 0.00 82 1006.9
20260505215440 83 215 2.0 7.0 0.00 0.00 0.00 83 1006.9
20260505214940 83 163 3.0 12.0 0.00 0.00 0.00 83 1007.1
20260505214440 83 150 3.0 12.0 0.00 0.00 0.00 83 1007.1
20260505213940 83 159 3.0 10.0 0.00 0.00 0.00 83 1007.2
20260505213713 83 163 3.0 10.0 0.00 0.00 0.00 82 1007.1
20260505212942 83 148 3.0 14.0 0.00 0.00 0.00 82 1007.2
20260505212713 83 194 3.0 14.0 0.00 0.00 0.00 83 1007.2
20260505211940 83 140 2.0 12.0 0.00 0.00 0.00 82 1007.3
20260505211440 83 197 2.0 12.0 0.00 0.00 0.00 83 1007.3
20260505210940 83 171 2.0 10.0 0.00 0.00 0.00 83 1007.4
20260505210712 83 197 3.0 10.0 0.00 0.00 0.00 83 1007.5
20260505210210 83 159 3.0 12.0 0.00 0.00 0.00 83 1007.5
20260505205438 83 168 3.0 12.0 0.00 0.00 0.00 83 1007.6
20260505204938 83 162 2.0 12.0 0.00 0.00 0.00 83 1007.6
20260505204437 83 180 2.0 8.0 0.00 0.00 0.00 83 1007.7
20260505203937 83 202 2.0 8.0 0.00 0.00 0.00 82 1007.9
20260505203436 83 201 2.0 12.0 0.00 0.00 0.00 82 1007.9
20260505202936 84 178 2.0 12.0 0.00 0.00 0.00 81 1007.8
20260505202438 84 175 2.0 10.0 0.00 0.00 0.00 82 1007.9
20260505202210 84 190 2.0 9.0 0.00 0.00 0.00 82 1008.1
20260505201430 84 211 2.0 9.0 0.00 0.00 0.00 83 1008.0
20260505200923 84 190 2.0 9.0 0.00 0.00 0.00 83 1008.1
20260505200417 84 195 3.0 12.0 0.00 0.00 0.00 83 1008.2
20260505195911 84 179 3.0 12.0 0.00 0.00 0.00 82 1008.3
20260505195636 84 184 2.0 10.0 0.00 0.00 0.00 83 1008.3
20260505194859 83 213 3.0 11.0 0.00 0.00 0.00 84 1008.4
20260505194357 83 187 3.0 11.0 0.00 0.00 0.00 85 1008.6
20260505194352 83 103 3.0 11.0 0.00 0.00 0.00 84 1008.6
20260505193350 82 168 2.0 8.0 0.00 0.00 0.00 85 1008.5
20260505192849 82 159 2.0 9.0 0.00 0.00 0.00 86 1008.6
20260505192349 82 209 2.0 11.0 0.00 0.00 0.00 85 1008.7
20260505191849 82 139 2.0 11.0 0.00 0.00 0.00 84 1008.6
20260505191348 83 155 2.0 10.0 0.00 0.00 0.00 84 1008.7
20260505190847 82 152 2.0 10.0 0.00 0.00 0.00 84 1008.8
20260505190346 82 155 2.0 7.0 0.00 0.00 0.00 84 1008.8
20260505185846 82 189 3.0 10.0 0.00 0.00 0.00 83 1008.7
20260505185344 82 203 3.0 10.0 0.00 0.00 0.00 84 1008.7
20260505184844 82 217 2.0 10.0 0.00 0.00 0.00 84 1008.7
20260505184344 82 204 2.0 13.0 0.00 0.00 0.00 85 1008.9
20260505183844 82 215 3.0 13.0 0.00 0.00 0.00 85 1008.9
20260505183345 82 170 3.0 8.0 0.00 0.00 0.00 85 1009.0
20260505182846 81 171 3.0 8.0 0.00 0.00 0.00 86 1009.0
20260505182344 81 201 2.0 7.0 0.00 0.00 0.00 86 1008.9
20260505181843 81 175 2.0 6.0 0.00 0.00 0.00 86 1009.0
20260505181344 81 161 2.0 7.0 0.00 0.00 0.00 86 1009.1
20260505180837 81 151 2.0 7.0 0.00 0.00 0.00 86 1009.1
20260505180330 81 202 2.0 8.0 0.00 0.00 0.00 87 1009.2
20260505175824 81 199 2.0 8.0 0.00 0.00 0.00 88 1009.4
20260505175318 80 196 2.0 9.0 0.00 0.00 0.00 88 1009.5
20260505174812 80 202 2.0 9.0 0.00 0.00 0.00 87 1009.4
20260505174306 80 218 2.0 6.0 0.00 0.00 0.00 87 1009.4
20260505174031 80 192 2.0 7.0 0.00 0.00 0.00 89 1009.4
20260505173526 80 206 2.0 7.0 0.00 0.00 0.00 89 1009.5
20260505172748 79 181 2.0 7.0 0.00 0.00 0.00 89 1009.6
20260505172242 79 175 2.0 8.0 0.00 0.00 0.00 89 1009.5
20260505171735 79 210 2.0 9.0 0.00 0.00 0.00 88 1009.5
20260505171230 79 208 1.0 9.0 0.00 0.00 0.00 89 1009.4
20260505170724 79 158 1.0 8.0 0.00 0.00 0.00 89 1009.3
20260505170450 79 197 2.0 8.0 0.00 0.00 0.00 89 1009.5
20260505165712 79 173 3.0 8.0 0.00 0.00 0.00 90 1009.6
20260505165209 79 138 2.0 9.0 0.00 0.00 0.00 90 1009.5
20260505165203 78 184 2.0 11.0 0.00 0.00 0.00 90 1009.5
20260505164154 78 190 2.0 11.0 0.00 0.00 0.00 90 1009.6
20260505163648 78 191 2.0 11.0 0.00 0.00 0.00 90 1009.6
20260505163143 79 198 2.0 10.0 0.00 0.00 0.00 89 1009.5
20260505162636 79 163 2.0 10.0 0.00 0.00 0.00 89 1009.5
20260505162130 79 185 2.0 8.0 0.00 0.00 0.00 90 1009.4
20260505161626 79 159 2.0 8.0 0.00 0.00 0.00 90 1009.4
20260505161620 78 175 2.0 8.0 0.00 0.00 0.00 92 1009.5
20260505160845 78 183 2.0 10.0 0.00 0.00 0.00 91 1009.4
20260505160106 78 216 2.0 10.0 0.00 0.00 0.00 92 1009.3
20260505153302 77 160 2.0 7.0 0.00 0.00 0.00 93 1009.1
20260505152524 77 199 2.0 7.0 0.00 0.00 0.00 94 1009.2
20260505152251 76 198 1.0 7.0 0.00 0.00 0.00 95 1009.3
20260505151512 76 166 2.0 11.0 0.00 0.00 0.00 94 1009.3
20260505151006 76 165 2.0 11.0 0.00 0.00 0.00 94 1009.2
20260505150500 76 153 3.0 10.0 0.00 0.00 0.00 94 1009.2
20260505140348 75 176 3.0 11.0 0.00 0.00 0.00 95 1008.8
20260505140114 75 132 3.0 11.0 0.00 0.00 0.00 95 1008.8
20260505130306 73 155 2.0 7.0 0.00 0.00 0.00 96 1008.8
20260505125038 72 146 2.0 5.0 0.00 0.00 0.00 97 1009.0
20260505124536 72 138 2.0 5.0 0.00 0.00 0.00 97 1008.9
20260505123803 72 136 2.0 8.0 0.00 0.00 0.00 97 1008.7
20260505123301 71 141 1.0 8.0 0.00 0.00 0.00 97 1008.7
20260505122759 71 140 1.0 7.0 0.00 0.00 0.00 97 1008.8
20260505122258 71 138 1.0 7.0 0.00 0.00 0.00 97 1008.7
20260505121758 71 155 1.0 5.0 0.00 0.00 0.00 97 1008.6
20260505121259 71 155 1.0 5.0 0.00 0.00 0.00 97 1008.4
20260505120801 71 159 1.0 5.0 0.00 0.00 0.00 97 1008.6
20260505120258 70 140 1.0 5.0 0.00 0.00 0.00 97 1008.4
20260505115759 70 123 2.0 6.0 0.00 0.00 0.00 97 1008.4
20260505115530 70 134 2.0 6.0 0.00 0.00 0.00 97 1008.4
20260505114758 70 132 3.0 6.0 0.00 0.00 0.00 97 1008.2
20260505114529 70 144 2.0 5.0 0.00 0.00 0.00 97 1008.2
20260505113758 70 146 1.0 5.0 0.00 0.00 0.00 97 1008.3
20260505113528 70 146 1.0 7.0 0.00 0.00 0.00 97 1008.5
20260505112758 70 156 1.0 7.0 0.00 0.00 0.00 97 1008.5
20260505112259 70 146 1.0 5.0 0.00 0.00 0.00 97 1008.4
20260505111753 70 155 0.0 3.0 0.00 0.00 0.00 97 1008.5
20260505111525 70 155 0.0 3.0 0.00 0.00 0.00 97 1008.3
20260505110753 70 155 1.0 6.0 0.00 0.00 0.00 97 1008.2
20260505110524 70 156 1.0 6.0 0.00 0.00 0.00 97 1008.2
20260505101750 70 147 1.0 7.0 0.00 0.00 0.00 96 1008.4
20260505101520 70 147 1.0 7.0 0.00 0.00 0.00 96 1008.3
20260505100749 70 149 2.0 7.0 0.00 0.00 0.00 96 1008.3
20260505100251 70 149 1.0 7.0 0.00 0.00 0.00 96 1008.3
20260505095750 70 154 1.0 5.0 0.00 0.00 0.00 96 1008.4
20260505095250 70 146 1.0 5.0 0.00 0.00 0.00 96 1008.6
20260505095021 70 145 1.0 5.0 0.00 0.00 0.00 96 1008.6
20260505094520 70 140 2.0 7.0 0.00 0.00 0.00 96 1008.6
20260505093749 70 148 2.0 7.0 0.00 0.00 0.00 96 1008.4
20260505093249 70 136 1.0 6.0 0.00 0.00 0.00 96 1008.3
20260505092751 70 134 1.0 5.0 0.00 0.00 0.00 96 1008.5
20260505092249 70 147 1.0 5.0 0.00 0.00 0.00 96 1008.6
20260505091750 69 150 1.0 6.0 0.00 0.00 0.00 96 1008.7
20260505091520 69 151 1.0 6.0 0.00 0.00 0.00 96 1008.7
20260505090748 69 147 0.0 5.0 0.00 0.00 0.00 96 1008.8
20260505090243 69 146 0.0 2.0 0.00 0.00 0.00 96 1008.9
20260505090006 69 146 1.0 6.0 0.00 0.00 0.00 96 1008.9
20260505085229 69 146 1.0 6.0 0.00 0.00 0.00 95 1008.9
20260505084731 69 160 1.0 4.0 0.00 0.00 0.00 95 1008.8
20260505084227 69 174 1.0 5.0 0.00 0.00 0.00 96 1008.8
20260505083959 69 145 1.0 6.0 0.00 0.00 0.00 96 1009.0
20260505083227 69 150 1.0 6.0 0.00 0.00 0.00 95 1009.0
20260505082727 69 182 1.0 5.0 0.00 0.00 0.00 95 1009.0
20260505082230 69 155 0.0 3.0 0.00 0.00 0.00 95 1009.2
20260505081728 69 157 1.0 5.0 0.00 0.00 0.00 95 1009.2
20260505081458 69 148 1.0 5.0 0.00 0.00 0.00 95 1009.2
20260505080723 69 144 1.0 3.0 0.00 0.00 0.00 95 1009.2
20260505080221 69 145 1.0 4.0 0.00 0.00 0.00 95 1009.3
20260505075722 69 146 1.0 4.0 0.00 0.00 0.00 95 1009.2
20260505075222 69 148 1.0 6.0 0.00 0.00 0.00 95 1009.3
20260505074720 69 143 1.0 6.0 0.00 0.00 0.00 95 1009.4
20260505074217 69 144 1.0 5.0 0.00 0.00 0.00 94 1009.3
20260505073719 69 144 1.0 5.0 0.00 0.00 0.00 94 1009.5
20260505073448 69 150 2.0 8.0 0.00 0.00 0.00 94 1009.3
20260505072948 69 159 1.0 8.0 0.00 0.00 0.00 94 1009.3
20260505072219 70 142 1.0 5.0 0.00 0.00 0.00 94 1009.4
20260505071713 70 182 1.0 9.0 0.00 0.00 0.00 94 1009.4
20260505071207 70 175 1.0 9.0 0.00 0.00 0.00 94 1009.4
20260505070701 70 157 2.0 8.0 0.00 0.00 0.00 94 1009.5
20260505070155 70 110 1.0 9.0 0.00 0.00 0.00 93 1009.6
20260505065649 70 147 1.0 9.0 0.00 0.00 0.00 93 1009.7
20260505065143 70 152 1.0 6.0 0.00 0.00 0.00 93 1009.8
20260505064907 70 129 1.0 7.0 0.00 0.00 0.00 93 1009.9
20260505064131 70 142 1.0 7.0 0.00 0.00 0.00 93 1009.8
20260505063625 70 155 2.0 7.0 0.00 0.00 0.00 93 1009.9
20260505063119 70 159 2.0 8.0 0.00 0.00 0.00 93 1010.0
20260505062613 70 149 2.0 8.0 0.00 0.00 0.00 93 1010.0
20260505062107 70 146 2.0 7.0 0.00 0.00 0.00 92 1010.1
20260505061601 70 148 2.0 6.0 0.00 0.00 0.00 92 1010.1
20260505061055 70 144 1.0 6.0 0.00 0.00 0.00 92 1010.1
20260505060549 70 164 2.0 10.0 0.00 0.00 0.00 92 1010.3
20260505060043 70 136 2.0 10.0 0.00 0.00 0.00 92 1010.3
20260505055538 70 173 1.0 8.0 0.00 0.00 0.00 92 1010.2
20260505055303 70 142 2.0 9.0 0.00 0.00 0.00 92 1010.2
20260505054525 70 149 2.0 9.0 0.00 0.00 0.00 92 1010.3
20260505054018 70 149 2.0 8.0 0.00 0.00 0.00 91 1010.2
20260505053513 70 144 2.0 8.0 0.00 0.00 0.00 91 1010.1
20260505053007 70 141 2.0 7.0 0.00 0.00 0.00 91 1010.2
20260505052501 70 146 2.0 7.0 0.00 0.00 0.00 91 1010.4
20260505051955 71 142 2.0 7.0 0.00 0.00 0.00 91 1010.6
20260505051449 71 144 1.0 6.0 0.00 0.00 0.00 91 1010.8
20260505050943 71 167 1.0 5.0 0.00 0.00 0.00 91 1010.7
20260505050438 71 171 1.0 5.0 0.00 0.00 0.00 90 1010.6
20260505041431 71 145 2.0 9.0 0.00 0.00 0.00 89 1010.7
20260505040932 71 150 2.0 9.0 0.00 0.00 0.00 89 1010.6
20260505040430 71 145 2.0 9.0 0.00 0.00 0.00 88 1010.7
20260505035930 71 147 2.0 9.0 0.00 0.00 0.00 88 1010.9
20260505035429 71 151 2.0 8.0 0.00 0.00 0.00 88 1010.9
20260505035159 72 133 2.0 8.0 0.00 0.00 0.00 88 1010.8
20260505034428 72 142 2.0 8.0 0.00 0.00 0.00 88 1010.8
20260505033926 72 149 3.0 8.0 0.00 0.00 0.00 88 1010.9
20260505033426 72 143 3.0 11.0 0.00 0.00 0.00 88 1011.0
20260505032926 72 139 3.0 11.0 0.00 0.00 0.00 88 1011.0
20260505032426 72 136 3.0 9.0 0.00 0.00 0.00 87 1010.9
20260505031924 72 147 2.0 8.0 0.00 0.00 0.00 87 1011.0
20260505031423 72 135 2.0 9.0 0.00 0.00 0.00 87 1011.1
20260505030924 72 152 2.0 9.0 0.00 0.00 0.00 86 1011.0
20260505030424 72 137 2.0 8.0 0.00 0.00 0.00 86 1010.8
20260505025923 72 204 2.0 8.0 0.00 0.00 0.00 86 1010.9
20260505025424 72 158 2.0 8.0 0.00 0.00 0.00 85 1010.9
20260505025156 73 155 2.0 9.0 0.00 0.00 0.00 85 1010.9